Home   Weather   Everett   Past weeks

Flag for USA Past Weather in Everett, Washington, USA — Yesterday and Last 2 Weeks

52 °F

Passing clouds.

Feels Like: 51 °F
Forecast: 52 / 60 °F
Wind: 5 mph from North

Location: Snohomish County Airport

Current Time: Oct 25, 2016 at 1:38:13 AM

Latest Report: Oct 25, 2016 at 12:53 AM

Visibility: 10 mi

Pressure: 29.78 "Hg

Humidity: 75%

Dew Point: 44 °F

Location of EverettLocation

Past Weather in Everett — Graph


Everett Temperature Yesterday

Maximum temperature yesterday: 63 °F (at 10:53 AM)
Minimum temperature yesterday: 51 °F (at 7:53 PM)
Average temperature yesterday: 55 °F

High & Low Weather Summary for the Past Weeks

High64 °F (Oct 12, 2:53 PM)96% (Oct 13, 4:53 PM)30.32 "Hg (Oct 13, 4:53 PM)
Low40 °F (Oct 11, 5:53 AM)34% (Oct 12, 2:53 PM)29.09 "Hg (Oct 15, 4:53 PM)
Average52 °F77%29.82 "Hg
* Reported Oct 9 11:53 PM — Oct 24 11:53 PM, Everett, Weather by CustomWeather, © 2016

Note: Actual official high and low records may vary slightly from our data, if they occured in-between our weather recording intervals... More about our weather records


Everett Weather History for the Previous 24 Hours

Scroll right to see more
Time TempWeatherWind HumidityBarometerVisibility
11:53 PM
Mon, Oct 24
53 °FClear.9 mph72%29.78 "Hg10 mi
10:53 PM53 °FClear.7 mph77%29.76 "Hg10 mi
9:53 PM52 °FClear.3 mph86%29.75 "Hg10 mi
8:53 PM51 °FOvercast.5 mph89%29.74 "Hg10 mi
7:53 PM51 °FLight rain. Mostly cloudy.10 mph89%29.72 "Hg10 mi
6:53 PM52 °FLight rain. Mostly cloudy.13 mph83%29.72 "Hg10 mi
5:53 PM52 °FLight rain. Overcast.20 mph83%29.72 "Hg6 mi
4:53 PM53 °FLight rain. Overcast.16 mph77%29.71 "Hg10 mi
3:53 PM55 °FMore clouds than sun.17 mph67%29.70 "Hg10 mi
2:53 PM58 °FOvercast.18 mph65%29.65 "Hg10 mi
1:53 PM61 °FOvercast.15 mph56%29.63 "Hg10 mi
12:53 PM60 °FOvercast.14 mph56%29.62 "Hg10 mi
11:53 AM57 °FPartly sunny.10 mph64%29.60 "Hg10 mi
10:53 AM63 °FPartly sunny.7 mph43%29.55 "Hg10 mi
9:53 AM61 °FOvercast.7 mph46%29.57 "Hg10 mi
8:53 AM59 °FPassing clouds.6 mph49%29.57 "Hg10 mi
7:53 AM57 °FSunny.7 mph55%29.56 "Hg10 mi
6:53 AM57 °FPassing clouds.7 mph55%29.59 "Hg10 mi
5:53 AM58 °FPassing clouds.8 mph51%29.62 "Hg10 mi
4:53 AM54 °FOvercast.3 mph67%29.66 "Hg10 mi
3:53 AM54 °FMostly cloudy.No wind69%29.68 "Hg10 mi
2:53 AM52 °FPassing clouds.No wind77%29.70 "Hg10 mi
1:53 AM52 °FPassing clouds.3 mph80%29.69 "Hg10 mi
Weather by CustomWeather, © 2016

See weather overviewHow to use our weather pages